Miscellaneous Local Product
Issued by NWS North Platte, NE

Home | Current Version | Previous Version | Text Only | Print | Product List | Glossary On
Versions: 1 2 3 4 5 6 7 8 9 10 11 12 13 14 15 16 17 18 19 20 21 22 23 24 25 26 27 28 29 30 31 32 33 34 35 36 37 38 39 40 41 42 43 44 45 46 47 48 49 50
075
AXUS43 KLBF 270410
MISLBF


WESTERN AND NORTH CENTRAL NEBRASKA HOURLY WEATHER ROUNDUP
NATIONAL WEATHER SERVICE NORTH PLATTE NE
1100 PM CDT TUE JUL 26 2016

NOTE: "FAIR" INDICATES FEW OR NO CLOUDS BELOW 12,000 FEET WITH NO
SIGNIFICANT WEATHER AND/OR OBSTRUCTIONS TO VISIBILITY.

NOTE: STATIONS NOT REPORTING VARIABLES SUCH AS SKY/WEATHER OR
PRESSURE ARE PROVIDED BY RAWS AND APRS NETWORKS AND ARE NOT UNDER
NATIONAL WEATHER SERVICE QUALITY CONTROL.

...OBSERVATIONS IN AND NEAR THE EASTERN PANHANDLE OF NEBRASKA...

CITY           SKY/WX    TMP DP  RH WIND       PRES   REMARKS
PINE RIDGE     CLOUDY    66  59  78 CALM      30.02R
CHADRON        CLOUDY    68  59  73 N7        30.05R
ALLIANCE       LGT RAIN  68  58  70 VRB3      30.07R
SIDNEY         CLEAR     69  46  43 W12       30.08F
$$

...OBSERVATIONS IN NORTHERN NEBRASKA AND FAR SOUTHERN SOUTH DAKOTA...

CITY           SKY/WX    TMP DP  RH WIND       PRES   REMARKS
WINNER         MOCLDY    72  61  68 NW13G24   29.98R
VALENTINE      LGT RAIN  63  32  31 MISG      30.09R
THEDFORD       CLOUDY    75  63  66 N35G49    30.18R
AINSWORTH      TSTM      61  61 100 E13       30.11S
O`NEILL        CLOUDY    77  64  64 E9        30.03S
ORD            PTCLDY    75  65  70 SE9       30.01R
BROKEN BOW     CLOUDY    73  66  78 SE10      30.03R
VALENTINE NWR    N/A     62  60  95 N17G30      N/A
BUTTE            N/A     66  61  84 NE8         N/A
HALSEY           N/A     76  65  67 SE8         N/A
EWING            N/A     72  68  87 CALM        N/A
$$

...OBSERVATIONS IN SOUTHWEST NEBRASKA AND FAR NORTHEAST COLORADO...

CITY           SKY/WX    TMP DP  RH WIND       PRES   REMARKS
HOLYOKE        FAIR      70  59  68 W3        30.05R
IMPERIAL       CLEAR     75  62  64 S6        30.03R
OGALLALA       CLOUDY    75  66  74 CALM      30.03R
NORTH PLATTE   CLOUDY    76  65  68 SE10      30.03R
MCCOOK         CLOUDY    80  63  55 S10G22    30.00R
LEXINGTON      PTCLDY    76  66  71 SE14      30.04R
STAPLETON        N/A     75  67  76 CALM        N/A
GOTHENBURG       N/A     78  62  57 SE9         N/A
CALLAWAY         N/A     74  67  77 SE12        N/A
$$

...OBSERVATIONS IN CENTRAL LINCOLN COUNTY AREA...

CITY           SKY/WX    TMP DP  RH WIND       PRES   REMARKS
N.P. AIRPORT   CLOUDY    76  65  68 SE10      30.03R
N.P. DOWNTOWN    N/A     79  67  66 CALM        N/A
N.P. SOUTHEAST   N/A     78  67  68 MISG        N/A
N.P. HILLCREST   N/A     76  66  71 SE8         N/A
$$

...SOME OBSERVATIONS FROM AROUND THE REGION...

CITY           SKY/WX    TMP DP  RH WIND       PRES   REMARKS
DENVER         MOCLDY    71  44  37 SE6       30.15R
LARAMIE        CLOUDY    68  35  29 VRB7      30.30R
CHEYENNE       CLOUDY    70  46  42 CALM      30.23R
SCOTTSBLUFF    PTCLDY    72  56  57 NE14      30.07F
RAPID CITY     CLOUDY    70  57  63 NE12      30.06R
BISMARCK       CLOUDY    70  63  78 N10       30.04R
PIERRE         CLOUDY    70  62  76 W7        29.94S
SIOUX FALLS    CLOUDY    77  65  66 SW10      30.00R
OMAHA          PTCLDY    77  68  73 SE6       30.02R
GRAND ISLAND   PTCLDY    73  68  84 SE3       30.06R
KANSAS CITY    CLEAR     77  67  71 SE6       30.00F
WICHITA        PTCLDY    81  72  74 E9        29.98S
OKLAHOMA CITY  PTCLDY    77  73  87 SE6       29.98R
DALLAS         MOCLDY    86  71  60 E6        29.91S HX  91
AMARILLO       CLEAR     76  64  66 SE12      30.10R
DODGE CITY     CLEAR     73  66  78 E3        30.05R
HAYS           CLEAR     75  63  64 SE6       30.03R
GOODLAND       CLOUDY    69  59  70 S15       30.08S
$$




USA.gov is the U.S. government's official web portal to all federal, state and local government web resources and services.